Regional Weather Roundup
Issued by NWS Mobile, AL

Home | Current Version | Previous Version | Text Only | Print | Product List | Glossary On
Versions: 1 2 3 4 5 6 7 8 9 10 11 12 13 14 15 16 17 18 19 20 21 22 23 24 25 26 27
000
ASUS44 KMOB 292312
RWRMOB
REGIONAL WEATHER ROUNDUP
NATIONAL WEATHER SERVICE MOBILE AL
600 PM CDT SAT APR 29 2017

NOTE: "FAIR" INDICATES FEW OR NO CLOUDS BELOW 12,000 FEET WITH NO
      SIGNIFICANT WEATHER AND/OR OBSTRUCTIONS TO VISIBILITY.

  * THESE STATIONS ARE PART OF THE UNIVERSITY OF SOUTH ALABAMA
    MESONET AND ARE NOT UNDER NWS OR FAA QUALITY CONTROL.

ALZ061>064-300000-
COASTAL ALABAMA

CITY           SKY/WX    TMP DP  RH WIND       PRES   REMARKS
MOBILE REG APT CLOUDY    79  72  79 SE17G28   29.99S
BROOKLEY FIELD CLOUDY    80  75  84 SE17G23   29.99F
USA CAMPUS*      N/A     77  72  83 SE5       29.99S
DOG RIVER*       N/A     77  73  88 SE16      30.73S


CITY           SKY/WX    TMP DP  RH WIND       PRES   REMARKS
GULF SHORES    CLOUDY    77  76  98 SE14G23   29.99F

$$

ALZ051>060-300000-
INTERIOR SOUTHWEST AND SOUTH CENTRAL ALABAMA

CITY           SKY/WX    TMP DP  RH WIND       PRES   REMARKS
GREENVILLE     MOSUNNY   84  65  52 S14G20    30.01S
EVERGREEN      SUNNY     82  67  60 S15       30.02R
ATMORE*          N/A     81  72  74 SE17      30.03S
ANDALUSIA/OPP  MOSUNNY   85  67  54 VRB7      30.02S
ANDALUSIA*       N/A     82  68  61 S5        30.03S
FLORALA APT    PTSUNNY   82  67  60 S14G21    30.05R
FLORALA*         N/A     82  70  65 E8        30.74S

$$

FLZ001>006-300000-
WESTERN FLORIDA PANHANDLE

CITY           SKY/WX    TMP DP  RH WIND       PRES   REMARKS
PENSACOLA      CLOUDY    78  72  81 SE17G24   30.01S
NAS PENSACOLA  CLOUDY    78  73  84 SE14G24   30.00S
MILTON         LGT RAIN  78  72  81 SE16      30.02S
WHTNG S FIELD  CLOUDY    81  73  76 SE15G22   30.02S


CITY           SKY/WX    TMP DP  RH WIND       PRES   REMARKS
JAY*             N/A     79  68  69 S14       30.02S
DUKE FIELD     PTSUNNY   80  71  73 SE10      30.03S
CRESTVIEW      MOSUNNY   81  70  69 S10G18    30.05S
VALPARAISO     PTSUNNY   78  72  83 SE17G24   30.04S
DESTIN         CLOUDY    80  78  94 SE13G21   30.04S

$$

MSZ076-079-300000-
INTERIOR SOUTHEAST MISSISSIPPI

CITY           SKY/WX    TMP DP  RH WIND       PRES   REMARKS
LEAKESVILLE*   NOT AVBL
AGRICOLA*        N/A     79  72  78 SE6       29.96S

$$

MARINE OBSERVATIONS

STATION/POSITION TIME  TEMP    WIND        PRES    WAVE
                       AIR SEA DIR/SP/G            HT/PER
                 (UTC) (F)     (DEG/KT/KT) (MB)    (FT/S)
PASCAGOULA       2248   78     130/ 17/ 22 1014.5F
PETIT BOIS ISLND 2248   78     130/ 16/ 20 1015.3F
GRAND BAY        2145   78     130/ 19     1015.0F
KATRINA CUT      2230   77     140/ 21     1014.2F
CEDAR POINT      2230   77     140/ 18     1015.2S
E DAUPHIN ISLAND 2200   76     120/ 19/ 23 1015.0R
MIDDLE BAY LIGHT 2230   77     130/ 24     1014.9R
USCG MOBILE BAY  2248   78 78  140/  7/ 10 1016.0F
STATE DOCKS      2248   79 77              1015.5F
MEAHER PARK      2230   79     130/ 14     1014.9S
FORT MORGAN      2248   77     140/ 20/ 23   N/A
12 S ORANGE BCH  2150   76 76  120/ 17/ 21 1014.9S   5/ 7
PENSACOLA BAY    2248          150/  4/ 10 1016.4R
64 S DAUPHIN ISL 2250   77 76  120/ 17/ 21 1014.1F   6/ 7
67 S FORT MORGAN 2230   76     120/ 21     1014.2F

$$

SELECTED LOCATIONS ACROSS THE REGION

CITY           SKY/WX    TMP DP  RH WIND       PRES   REMARKS
NEW ORLEANS    PTSUNNY   82  74  76 SE17G28   29.87F
GULFPORT       CLOUDY    80  75  84 SE22      29.93F
PASCAGOULA AP  CLOUDY    79  72  79 SE20      29.96F
PASCAGOULA*    NOT AVBL
HATTIESBURG    PTSUNNY   81  72  74 SE22      29.91F
LAUREL         CLOUDY    81  70  69 SE15G26   29.92F
MERIDIAN       MOSUNNY   83  68  60 SE14      29.91F
JACKSON        CLOUDY    83  70  64 SE17G25   29.85S
MONTGOMERY     MOSUNNY   87  66  49 SE9       30.00F
TROY           MOSUNNY   83  69  62 S6        30.04R
ASHFORD*         N/A     82  68  61 S5        30.03S
DOTHAN         MOSUNNY   84  68  58 S18       30.07S
PANAMA CITY    CLOUDY    82  71  69 SE15G26   30.05S

$$





USA.gov is the U.S. government's official web portal to all federal, state and local government web resources and services.